Location: A�t Ihand
(32.7573°N, 5.3591°W)
Time: 15:37:33
(UTC+00:00)

Daily predictions for brighter satellites

Satellite Brightness Start Highest point End
(mag) Time Altitude Azimuth Time Altitude Azimuth Time Altitude Azimuth
Cosmos 2285 Rocket 4.2 17:31:19 10° N 17:37:29 49° ENE 17:43:33 10° SE
Cosmos 2181 Rocket 4.1 17:37:28 10° S 17:43:53 86° E 17:50:17 10° N
H-2A R/B 2.7 17:40:31 10° S 17:44:49 81° WSW 17:48:59 10° NNW
Lacrosse 4 Rocket 3.4 17:43:52 10° ESE 17:45:01 11° ESE 17:46:09 10° E
CZ-4B R/B 3.1 17:41:46 10° SSE 17:47:03 66° ENE 17:52:18 10° N
Cosmos 1666 Rocket 3.6 17:43:05 10° N 17:47:32 83° E 17:51:59 10° S
Meteor 1-20 Rocket 4.3 17:43:07 10° N 17:48:56 69° E 17:54:39 10° SSE
Cosmos 1602 4.4 17:45:25 10° NNE 17:48:57 32° E 17:52:27 10° SE
Cosmos 1603 3.9 17:43:55 10° S 17:49:22 54° ESE 17:54:49 10° NNE
Meteor 1-26 Rocket 4.4 17:43:31 10° S 17:49:30 80° E 17:55:32 10° N
Cosmos 44 3.5 17:45:13 10° NNW 17:50:35 74° ENE 17:55:59 10° SSE
CREW DRAGON DEMO-1 DEB 3.1 17:49:29 10° NW 17:52:26 66° SW 17:55:22 10° SE
Cosmos 1943 3.5 17:47:21 10° S 17:52:45 50° ESE 17:58:12 10° NNE
Cosmos 1538 Rocket 4.1 17:49:33 10° SSW 17:54:55 89° WNW 18:00:19 10° NNE
NOAA 12 4.1 17:50:32 10° SSE 17:55:50 78° ENE 18:01:10 10° N
Cosmos 1782 2.7 17:54:46 10° S 17:58:42 83° E 18:02:41 10° N
Okean O Rocket 1.5 17:54:56 10° SSE 17:59:16 77° ENE 18:03:38 10° N
Cosmos 1461 4.3 17:56:00 10° SSE 17:59:38 24° ESE 18:02:44 13° ENE
Okean-O 4.2 17:58:53 10° E 18:01:13 14° ENE 18:03:33 10° NE
Sakura Rocket 3.7 17:58:01 10° SW 18:01:22 36° SSE 18:05:03 11° E
Cosmos 2369 Rocket 2.9 17:56:39 10° N 18:01:40 31° ENE 18:06:37 10° SE
H-2A R/B 3.6 17:58:01 10° N 18:01:56 36° WNW 18:05:54 10° SW
CENTAUR R/B 3.0 17:57:54 10° S 18:02:44 32° ESE 18:07:44 12° NE
Cosmos 1943 Rocket 2.2 17:57:34 10° N 18:03:03 55° ENE 18:08:31 10° SE
Orbus 7S 4.5 18:05:04 10° WSW 18:09:15 34° SSW 18:11:46 10° ESE
NOSS 3-2 (C) 3.8 18:05:58 10° S 18:10:52 37° ESE 18:15:09 15° NE
Cosmos 1633 Rocket 3.6 18:07:21 10° NNW 18:11:38 61° W 18:15:54 10° S
Cosmos 1437 Rocket 4.2 18:12:12 10° SE 18:14:58 18° E 18:15:08 18° E
ERS-2 2.2 18:12:56 10° N 18:16:35 79° WNW 18:20:14 10° SSW
USA 276 3.3 18:14:31 10° SSW 18:17:17 27° SE 18:18:20 22° E
SKYMED 2 3.5 18:14:03 10° NNE 18:18:23 70° ESE 18:22:41 10° S
Meteor 1-10 Rocket 4.4 18:16:17 10° SSE 18:21:42 48° E 18:27:02 10° NNE
Hubble Space Telescope 2.6 18:21:56 10° SSW 18:24:59 20° SSE 18:27:05 14° ESE
Cosmos 2218 Rocket 4.3 18:20:03 10° NNW 18:26:09 69° W 18:32:16 10° S
Cosmos 2366 rocket 4.3 18:20:54 10° N 18:27:01 71° W 18:33:06 10° S
FALCON 9 R/B 0.4 18:25:48 10° WNW 18:27:57 56° N 18:28:30 42° NE
Gblst 52 Del rocket 4.4 18:26:55 10° SW 18:33:38 73° SE 18:37:18 25° NE
ATLAS 3B CENTAUR R/B 2.6 18:33:27 10° SSW 18:34:06 11° S 18:34:39 10° S
CZ-4B R/B 3.3 18:31:47 10° NNW 18:34:32 28° WNW 18:37:19 10° SW
Feng Yun 1-1 Rocket 4.2 18:28:55 10° SSE 18:34:42 78° ENE 18:40:21 10° N
NOSS 3-2 (A) 3.4 18:30:38 10° SW 18:36:03 72° WNW 18:41:27 13° NNE
Cosmos 1500 3.0 18:41:10 10° N 18:44:59 73° E 18:48:49 10° SSE
Cosmos 2239 Rocket 4.5 18:42:02 10° N 18:48:05 56° E 18:54:10 10° SSE
USA 215 3.6 18:46:42 18° NNE 18:51:43 61° NW 18:58:07 10° WSW
USA 238 DEB 4.0 18:48:48 10° SW 18:55:15 63° WNW 19:00:35 17° NNE
USA 238 3.9 18:48:53 10° SW 18:55:20 64° WNW 19:00:39 17° NNE
Cosmos 1656 Rocket 3.7 18:51:23 10° N 18:56:50 51° ENE 18:58:59 33° ESE
CZ-2C R/B 2.8 18:52:54 10° SSE 18:57:57 66° ENE 19:02:46 10° N
MOS 1 Rocket 3.5 18:52:47 10° NNE 18:58:15 85° ESE 19:03:31 10° S
Cosmos 1689 Rocket 3.9 19:00:58 23° NW 19:02:00 30° WNW 19:04:36 10° SW
Cosmos 2263 4.0 19:00:38 10° NNW 19:06:15 84° ENE 19:11:51 10° SSE
COSMO-SKYMED 1 4.4 19:02:30 10° NNW 19:06:17 30° WNW 19:10:03 10° SW
Cosmos 2228 Rocket 4.3 19:02:39 10° SSW 19:06:58 43° W 19:11:16 10° N
Cosmos 1238 Rocket 3.2 19:03:43 10° N 19:08:07 89° W 19:13:30 10° S
Cosmos 1812 4.4 19:05:01 10° SW 19:08:29 33° W 19:11:43 12° NNW
USA 281 3.2 19:03:43 10° SE 19:10:05 57° ENE 19:16:30 10° NNW
Cosmos 1707 Rocket 4.0 19:06:21 10° S 19:09:40 48° SSE 19:09:40 48° SSE
Cosmos 1934 Rocket 3.9 19:04:44 10° N 19:10:59 59° E 19:17:07 10° SSE
H-2A R/B 3.7 19:07:05 10° SSE 19:15:55 19° N 19:17:22 10° N
CZ-4 R/B 2.5 19:08:55 10° S 19:17:28 - NNW 19:11:05 32° S
SL-8 R/B 3.5 19:10:29 10° SW 19:15:15 84° NW 19:15:22 83° N
Cosmos 2084 4.2 19:11:23 10° SW 19:15:30 48° NW 19:16:09 44° NNW
Lacrosse 4 Rocket 2.3 19:19:22 10° SW 19:23:11 42° WNW 19:23:20 42° NW
ATLAS 3B R/B 3.6 19:20:56 10° S 19:24:48 30° SSE 19:24:48 30° SSE
Meteor 1-11 Rocket 3.7 19:22:05 10° N 19:27:56 90° E 19:33:52 10° S
Okean-O 3.8 19:33:06 10° S 19:37:17 42° W 19:41:29 10° NNW
Cosmos 2369 Rocket 4.0 19:40:46 10° NW 19:45:31 28° WSW 19:50:14 10° SSW
CENTAUR R/B 3.7 19:48:05 10° WSW 19:53:13 33° NW 19:54:58 28° NNW
Hubble Space Telescope 3.8 20:01:53 10° WSW 20:02:24 13° WSW 20:02:24 13° WSW
H-2A R/B (2) 3.9 20:01:38 10° W 20:15:41 33° SW 20:16:30 32° SSW
